Location: Rumah Geringgi
(3.1667°N, 113.1667°E)
Time: 19:29:49
(UTC+00:00)

Cosmos 2315 Rocket - Pass Details

Date: 03 August 2024
Orbit: 965 x 1002 km, 82.9° (Epoch: 19 September)

Event Time Altitude Azimuth Distance (km) Brightness Sun altitude
Exits shadow 20:59:20 15° 192° (SSW) 2,426 5.8 -21.4°
Maximum altitude 21:04:42 68° 273° (W) 1,071 3.9 -20.1°
Drops below altitude 10° 21:11:01 10° 356° (N) 2,763 6.5 -18.6°
Sets 21:13:34 0° 358° (N) 3,709 7.3 -18.0°
